• In Uzbekistan
  • List of Countries
  • For 7 days
  • Water Temperature
  • Satellite Maps
  • Weather Map
  • Weather Widgets
  • user-avatar
    Login

    Hourly Weather Ondjiwa

    Today, 24 February, Friday

    Time Temperature Precipitation Wind Pressure Humidity
    00:00 +24°C° 0.3 mm 2 mps 666 mmHg 61%
    01:00 +24°C° 0 mm 2 mps 666 mmHg 66%
    02:00 +23°C° 0 mm 2 mps 666 mmHg 68%
    03:00 +23°C° 0 mm 2 mps 665 mmHg 70%
    04:00 +21°C° 0 mm 2 mps 665 mmHg 72%
    05:00 +21°C° 0 mm 2 mps 666 mmHg 72%
    06:00 +21°C° 0 mm 2 mps 666 mmHg 72%
    07:00 +23°C° 0 mm 2 mps 666 mmHg 72%
    08:00 +25°C° 0 mm 2 mps 667 mmHg 61%
    09:00 +28°C° 0 mm 1 mps 667 mmHg 51%
    10:00 +31°C° 0 mm 1 mps 668 mmHg 40%
    11:00 +33°C° 0 mm 1 mps 668 mmHg 35%
    12:00 +33°C° 0 mm 0 mps 668 mmHg 30%
    13:00 +35°C° 0 mm 0 mps 668 mmHg 25%
    14:00 +34°C° 0 mm 0 mps 667 mmHg 26%
    15:00 +33°C° 0 mm 0 mps 667 mmHg 26%
    16:00 +32°C° 0 mm 0 mps 666 mmHg 27%
    17:00 +32°C° 0 mm 1 mps 666 mmHg 31%
    18:00 +31°C° 0 mm 1 mps 665 mmHg 35%
    19:00 +29°C° 0 mm 1 mps 665 mmHg 38%
    20:00 +28°C° 0 mm 1 mps 666 mmHg 41%
    21:00 +27°C° 0 mm 1 mps 666 mmHg 44%
    22:00 +27°C° 0 mm 1 mps 666 mmHg 47%
    23:00 +26°C° 0 mm 2 mps 666 mmHg 49%

    Tomorrow, 25 February, Saturday

    Time Temperature Precipitation Wind Pressure Humidity
    00:00 +26°C° 0 mm 3 mps 666 mmHg 52%
    01:00 +26°C° 0 mm 3 mps 666 mmHg 55%
    02:00 +25°C° 0 mm 3 mps 666 mmHg 57%
    03:00 +24°C° 0 mm 3 mps 666 mmHg 60%
    04:00 +24°C° 0 mm 3 mps 666 mmHg 62%
    05:00 +24°C° 0 mm 3 mps 666 mmHg 62%
    06:00 +24°C° 0 mm 3 mps 667 mmHg 62%
    07:00 +24°C° 0 mm 3 mps 667 mmHg 62%
    08:00 +26°C° 0 mm 2 mps 668 mmHg 53%
    09:00 +28°C° 0 mm 2 mps 668 mmHg 44%
    10:00 +31°C° 0 mm 2 mps 669 mmHg 35%
    11:00 +32°C° 0 mm 2 mps 668 mmHg 32%
    12:00 +34°C° 0 mm 2 mps 668 mmHg 29%
    13:00 +35°C° 0 mm 3 mps 667 mmHg 25%
    14:00 +35°C° 0 mm 3 mps 667 mmHg 27%
    15:00 +35°C° 0 mm 2 mps 666 mmHg 28%
    16:00 +34°C° 0 mm 2 mps 666 mmHg 29%
    17:00 +32°C° 0 mm 2 mps 666 mmHg 33%
    18:00 +30°C° 0 mm 2 mps 666 mmHg 37%
    19:00 +28°C° 0 mm 2 mps 665 mmHg 41%
    20:00 +28°C° 0 mm 1 mps 666 mmHg 43%
    21:00 +27°C° 0 mm 1 mps 666 mmHg 45%
    22:00 +27°C° 0 mm 1 mps 666 mmHg 47%
    23:00 +26°C° 0 mm 1 mps 666 mmHg 47%

    Day after tomorrow, 26 February, Sunday

    Time Temperature Precipitation Wind Pressure Humidity
    00:00 +26°C° 0 mm 1 mps 666 mmHg 48%
    01:00 +26°C° 0 mm 1 mps 665 mmHg 48%
    02:00 +25°C° 0 mm 1 mps 665 mmHg 49%
    03:00 +25°C° 0 mm 2 mps 665 mmHg 50%
    04:00 +24°C° 0 mm 2 mps 665 mmHg 51%
    05:00 +24°C° 0 mm 2 mps 666 mmHg 51%
    06:00 +24°C° 0 mm 1 mps 666 mmHg 52%
    07:00 +25°C° 0 mm 1 mps 667 mmHg 52%
    08:00 +27°C° 0 mm 1 mps 667 mmHg 45%
    09:00 +30°C° 0 mm 2 mps 668 mmHg 39%
    10:00 +32°C° 0 mm 2 mps 668 mmHg 32%
    11:00 +34°C° 0 mm 2 mps 667 mmHg 29%
    12:00 +35°C° 0 mm 2 mps 667 mmHg 26%
    13:00 +37°C° 0 mm 3 mps 666 mmHg 24%
    14:00 +36°C° 0 mm 2 mps 665 mmHg 26%
    15:00 +35°C° 0 mm 2 mps 665 mmHg 28%
    16:00 +34°C° 0 mm 2 mps 664 mmHg 30%
    17:00 +32°C° 0 mm 2 mps 664 mmHg 34%
    18:00 +30°C° 0 mm 2 mps 664 mmHg 38%
    19:00 +29°C° 0 mm 2 mps 664 mmHg 42%
    20:00 +28°C° 0 mm 2 mps 664 mmHg 48%
    21:00 +27°C° 0 mm 2 mps 664 mmHg 54%
    22:00 +26°C° 0 mm 2 mps 664 mmHg 60%
    23:00 +25°C° 0.2 mm 2 mps 664 mmHg 65%

    27 February, Monday

    Time Temperature Precipitation Wind Pressure Humidity
    00:00 +24°C° 0.2 mm 2 mps 664 mmHg 70%
    01:00 +23°C° 0.2 mm 2 mps 663 mmHg 75%
    02:00 +23°C° 0.2 mm 2 mps 663 mmHg 76%
    03:00 +23°C° 0.2 mm 2 mps 663 mmHg 77%
    04:00 +22°C° 0.2 mm 1 mps 662 mmHg 78%
    05:00 +23°C° 0 mm 1 mps 663 mmHg 76%
    06:00 +23°C° 0 mm 1 mps 663 mmHg 74%
    07:00 +23°C° 0 mm 1 mps 664 mmHg 72%
    08:00 +26°C° 0 mm 1 mps 665 mmHg 62%
    09:00 +28°C° 0 mm 1 mps 665 mmHg 53%
    10:00 +31°C° 0 mm 1 mps 666 mmHg 43%
    11:00 +31°C° 0 mm 1 mps 665 mmHg 39%
    12:00 +32°C° 0 mm 1 mps 665 mmHg 35%
    13:00 +33°C° 0 mm 1 mps 664 mmHg 32%
    14:00 +34°C° 0 mm 2 mps 664 mmHg 32%
    15:00 +32°C° 0 mm 2 mps 663 mmHg 33%
    16:00 +32°C° 0 mm 2 mps 663 mmHg 33%
    17:00 +30°C° 0 mm 2 mps 663 mmHg 40%
    18:00 +29°C° 0 mm 2 mps 663 mmHg 46%
    19:00 +27°C° 0 mm 1 mps 663 mmHg 52%
    20:00 +26°C° 0.6 mm 1 mps 664 mmHg 60%
    21:00 +25°C° 0.6 mm 1 mps 664 mmHg 68%
    22:00 +25°C° 0.6 mm 1 mps 664 mmHg 75%
    23:00 +24°C° 1 mm 2 mps 664 mmHg 78%

    28 February, Tuesday

    Time Temperature Precipitation Wind Pressure Humidity
    00:00 +24°C° 1 mm 2 mps 664 mmHg 80%
    01:00 +23°C° 1 mm 2 mps 664 mmHg 83%
    02:00 +23°C° 0.5 mm 2 mps 664 mmHg 83%
    03:00 +21°C° 0.5 mm 3 mps 663 mmHg 84%
    04:00 +21°C° 0.5 mm 3 mps 663 mmHg 85%
    05:00 +21°C° 0.1 mm 3 mps 664 mmHg 84%
    06:00 +21°C° 0.1 mm 3 mps 664 mmHg 83%
    07:00 +20°C° 0.1 mm 3 mps 665 mmHg 83%
    08:00 +21°C° 0.2 mm 3 mps 665 mmHg 78%
    09:00 +22°C° 0.2 mm 3 mps 665 mmHg 73%
    10:00 +24°C° 0.2 mm 3 mps 666 mmHg 68%
    11:00 +25°C° 0.3 mm 3 mps 665 mmHg 65%
    12:00 +26°C° 0.3 mm 3 mps 665 mmHg 61%
    13:00 +27°C° 0.3 mm 3 mps 665 mmHg 58%
    14:00 +27°C° 0.2 mm 4 mps 664 mmHg 57%
    15:00 +28°C° 0.2 mm 4 mps 664 mmHg 56%
    16:00 +28°C° 0.2 mm 4 mps 664 mmHg 55%
    17:00 +26°C° 0.7 mm 3 mps 664 mmHg 61%
    18:00 +25°C° 0.7 mm 3 mps 664 mmHg 68%
    19:00 +24°C° 0.7 mm 2 mps 664 mmHg 75%
    20:00 +22°C° 3.8 mm 3 mps 665 mmHg 79%
    21:00 +21°C° 3.8 mm 3 mps 665 mmHg 84%
    22:00 +20°C° 3.8 mm 3 mps 665 mmHg 89%
    23:00 +19°C° 4.1 mm 4 mps 665 mmHg 89%

    1 March, Wednesday

    Time Temperature Precipitation Wind Pressure Humidity
    00:00 +19°C° 4.1 mm 4 mps 664 mmHg 90%
    01:00 +18°C° 4.1 mm 4 mps 664 mmHg 90%
    02:00 +18°C° 1.3 mm 4 mps 664 mmHg 90%
    03:00 +18°C° 1.3 mm 4 mps 664 mmHg 90%
    04:00 +18°C° 1.3 mm 4 mps 664 mmHg 90%
    05:00 +18°C° 0.2 mm 3 mps 664 mmHg 89%
    06:00 +18°C° 0.2 mm 3 mps 665 mmHg 88%
    07:00 +18°C° 0.2 mm 3 mps 665 mmHg 86%
    08:00 +19°C° 0 mm 3 mps 665 mmHg 80%
    09:00 +21°C° 0 mm 3 mps 666 mmHg 73%
    10:00 +24°C° 0 mm 2 mps 666 mmHg 66%
    11:00 +25°C° 0.1 mm 2 mps 666 mmHg 62%
    12:00 +27°C° 0.1 mm 2 mps 666 mmHg 58%
    13:00 +28°C° 0.1 mm 1 mps 665 mmHg 54%
    14:00 +28°C° 0.7 mm 2 mps 665 mmHg 56%
    15:00 +28°C° 0.7 mm 2 mps 665 mmHg 59%
    16:00 +28°C° 0.7 mm 2 mps 664 mmHg 61%
    17:00 +27°C° 0.1 mm 2 mps 665 mmHg 67%
    18:00 +26°C° 0.1 mm 2 mps 665 mmHg 73%
    19:00 +24°C° 0.1 mm 2 mps 665 mmHg 79%
    20:00 +24°C° 0.2 mm 1 mps 665 mmHg 82%
    21:00 +24°C° 0.2 mm 1 mps 665 mmHg 85%
    22:00 +23°C° 0.2 mm 1 mps 665 mmHg 88%
    23:00 +23°C° 1.1 mm 1 mps 665 mmHg 89%
    Show more